Flag for China Weather past 2 weeks in Lanchow, Gansu, China

Now
59 °F

Fog.


Feels Like: 59 °F
Forecast: 57 / 70 °F
Wind: No wind

Location: Lanzhou / Zhongchuan

Current Time: Aug 21, 2014 at 5:18:45 AM

Latest Report: Aug 21, 2014 at 4:00 AM


Visibility: 2 mi

Pressure: 30.04 "Hg

Humidity: 82%

Dew point: 54 °F

Location of LanchowLocation

Historic Weather in Lanchow — Graph

°F

Lanchow temperature yesterday

Maximum temperature yesterday: 72 °F (at 12:00 PM)
Minimum temperature yesterday: 54 °F (at 5:00 AM)
Average temperature yesterday: 63 °F

Past Weeks' High & Low Weather Summary

 TemperatureHumidityPressure
High81 °F (Aug 9, 6:00 PM)100% (Aug 9, 4:00 AM)30.18 "Hg (Aug 9, 4:00 AM)
Low43 °F (Aug 14, 6:00 AM)26% (Aug 17, 4:00 PM)29.89 "Hg (Aug 16, 3:00 PM)
Average62 °F68%30.05 "Hg
* Reported Aug 6 4:00 AM — Aug 21 4:00 AM, Lanchow, Weather by CustomWeather, © 2014

Note: Actual official high and low records may vary slightly from our data, if they occured in-between our weather recording intervals... More about our weather records

Advertising

Lanchow weather history for previous 24 hours

 ConditionsComfort  
Time TempWeatherWind HumidityBarometerVisibility
4:00 AM
Aug 21
59 °FFog.No wind82%30.04 "Hg2 mi
3:00 AM59 °FFog.1 mph88%30.04 "Hg2 mi
2:00 AM61 °FFog.No wind77%30.07 "Hg2 mi
1:00 AM63 °FFog.No wind73%30.09 "Hg2 mi
12:00 AM63 °FFog.1 mph73%30.09 "Hg3 mi
11:00 PM
Aug 20
63 °FOvercast.No wind73%30.09 "Hg5 mi
10:00 PM64 °FPassing clouds.1 mph68%30.12 "HgN/A
9:00 PM64 °FPassing clouds.No wind68%30.09 "HgN/A
8:00 PM64 °FPartly sunny.1 mph68%30.07 "HgN/A
7:00 PM66 °FPartly sunny.1 mph64%30.07 "HgN/A
6:00 PM66 °FPartly sunny.1 mph64%30.07 "HgN/A
5:00 PM66 °FPartly sunny.1 mph64%30.07 "HgN/A
4:00 PM66 °FPartly sunny.3 mph64%30.09 "HgN/A
3:00 PM64 °FSprinkles. Partly sunny.8 mph78%30.09 "HgN/A
2:00 PM68 °FPartly sunny.10 mph56%30.09 "HgN/A
1:00 PM72 °FPartly sunny.6 mph44%30.09 "HgN/A
12:00 PM72 °FPartly sunny.3 mph44%30.12 "HgN/A
11:00 AM68 °FPassing clouds.6 mph53%30.12 "HgN/A
10:00 AM66 °FSunny.1 mph52%30.12 "Hg10 mi
9:00 AM63 °FSunny.1 mph59%30.12 "Hg10 mi
8:00 AM61 °FSunny.1 mph63%30.09 "Hg10 mi
7:00 AM57 °FClear.6 mph72%30.09 "Hg10 mi
6:00 AM54 °FClear.1 mph77%30.09 "Hg10 mi
5:00 AM54 °FClear.3 mph77%30.09 "Hg10 mi
Weather by CustomWeather, © 2014

See weather overviewHow to use our weather pages